Regional Weather Roundup
Issued by NWS San Angelo, TX

Home | Current Version | Previous Version | Text Only | Print | Product List | Glossary On
Versions: 1 2 3 4 5 6 7 8 9 10 11 12 13 14 15 16 17 18 19 20 21 22 23 24 25 26 27 28 29 30 31 32 33 34 35 36 37 38 39 40 41 42 43 44 45 46 47 48 49 50
000
ASUS44 KSJT 201610
RWRSJT
WEST CENTRAL TEXAS REGIONAL WEATHER ROUNDUP
NATIONAL WEATHER SERVICE SAN ANGELO TX
1100 AM CDT THU JUL 20 2017

NOTE: "FAIR" INDICATES FEW OR NO CLOUDS BELOW 12,000 FEET WITH NO
SIGNIFICANT WEATHER AND/OR OBSTRUCTIONS TO VISIBILITY.

TXZ049-054-064>066-071>073-076>078-098-099-113-114-127-128-139-140-
154-155-168>170-201700
...LOCATIONS ACROSS WEST CENTRAL TEXAS...

CITY           SKY/WX    TMP DP  RH WIND       PRES   REMARKS
SAN ANGELO     SUNNY     90  66  45 S12       30.17S
ABILENE        SUNNY     88  69  53 SW14      30.16F
DYESS AFB      SUNNY     91  69  49 S14       30.15S
JUNCTION       SUNNY     87  69  54 S8        30.18S
SWEETWATER     SUNNY     87  65  48 SW10G16   30.21S
BROWNWOOD      LGT RAIN  90  70  51 SW7       30.17S
COLEMAN        SUNNY     88  67  49 S7        30.18S
SONORA         SUNNY     86  68  54 S9        30.24S
OZONA          FAIR      84  68  58 S13G20    30.22F
BRADY          NOT AVBL
$$

TEXAS PANHANDLE/OKLAHOMA PANHANDLE

CITY           SKY/WX    TMP DP  RH WIND       PRES   REMARKS
AMARILLO       SUNNY     87  58  37 SW23      30.21S
BORGER         SUNNY     91  59  33 SW14G23   30.16S
CANADIAN       SUNNY     94  65  38 W13       30.11S
DALHART        SUNNY     89  57  33 SW23G31   30.20F
DUMAS          SUNNY     86  59  39 S17       30.19F
GUYMON         NOT AVBL
HEREFORD       SUNNY     87  58  38 SW17G24   30.24S
PAMPA          SUNNY     92  57  30 SW16      30.19R
PERRYTON       SUNNY     91  63  38 SW17      30.13S
$$

SOUTHERN PANHANDLE/SOUTH PLAINS/ROLLING PLAINS

CITY           SKY/WX    TMP DP  RH WIND       PRES   REMARKS
LUBBOCK        MOSUNNY   84  64  50 S13G22    30.22S
SNYDER         SUNNY     86  66  51 S12       30.19F
CHILDRESS      SUNNY     93  61  34 W14       30.14S
SEMINOLE       SUNNY     85  62  45 S15       30.24S
$$

PERMIAN BASIN

CITY           SKY/WX    TMP DP  RH WIND       PRES   REMARKS
MIDLAND        SUNNY     88  61  40 S13       30.20F
ODESSA         SUNNY     86  63  45 S15       30.21F
WINK           SUNNY     86  63  45 S14       30.18S
$$

FAR WEST/SOUTHWEST MOUNTAINS/TRANS PECOS

CITY           SKY/WX    TMP DP  RH WIND       PRES   REMARKS
ALPINE           N/A     78  62  58 CALM      30.34S
DRYDEN           N/A     84  71  65 E9        30.16F
EL PASO        NOT AVBL
FORT STOCKTON  SUNNY     86  62  44 S12       30.19F
GUADALUPE PASS CLOUDY    72  62  71 NE8       30.35R
MARFA          MOSUNNY   75  61  61 S9        30.33S
PECOS          SUNNY     85  63  46 SE7       30.17F
$$

DALLAS/FORT WORTH METROPLEX

CITY           SKY/WX    TMP DP  RH WIND       PRES   REMARKS
DFW AIRPORT    MOSUNNY   93  73  52 S13       30.11S
FTW MEACHAM    SUNNY     91  74  57 S9        30.12S
DAL-EXECUTIVE  SUNNY     92  73  53 VRB5      30.12F
GRAND PRAIRIE  SUNNY     91  70  49 S7        30.13F
ADDISON        SUNNY     90  72  55 S9        30.13F
MESQUITE       SUNNY     90  72  55 SW6       30.13S
LANCASTER      SUNNY     90  71  53 SW7       30.13F
$$

NORTH CENTRAL TEXAS

CITY           SKY/WX    TMP DP  RH WIND       PRES   REMARKS
SHRMAN/DENISON SUNNY     91  71  50 SW13G18   30.13S
GAINESVILLE    SUNNY     90  72  54 S8        30.14S
BRIDGEPORT     SUNNY     91  69  48 SW8       30.14F
DENTON         SUNNY     92  72  51 SW12      30.12S
WAXAHACHIE     SUNNY     90  71  53 SW9       30.15S
GRANBURY       SUNNY     92  70  48 S9        30.14S
$$

WESTERN NORTH TEXAS

CITY           SKY/WX    TMP DP  RH WIND       PRES   REMARKS
WICHITA FALLS  SUNNY     91  69  48 S15       30.09S
VERNON         SUNNY     93  57  30 SW8       30.11S
BRECKENRIDGE   SUNNY     92  67  43 SW7       30.13S
COMANCHE       SUNNY     89  71  55 SW5       30.17S
$$

CENTRAL AND SOUTH CENTRAL TEXAS

CITY           SKY/WX    TMP DP  RH WIND       PRES   REMARKS
AUSTIN/BERGSTM MOSUNNY   90  71  53 SW9       30.14F
WACO           SUNNY     91  72  53 S7        30.13F
HILLSBORO      SUNNY     89  73  58 S9        30.14S
TEMPLE         SUNNY     92  70  48 SW9       30.14F
KILLEEN-GRAY   SUNNY     90  69  51 S8        30.14F
FORT HOOD      SUNNY     90  70  51 SW8       30.11F
GEORGETOWN     SUNNY     86  70  58 S10G16    30.14F
LAGO VISTA     FAIR      88  69  52 W6        30.18S
SAN MARCOS     MOSUNNY   90  70  51 S13       30.16F
NEW BRAUNFELS  SUNNY     90  70  51 SW12      30.14F
RANDOLPH AFB   MOSUNNY   89  72  57 S6        30.15F
SAN ANTONIO    NOT AVBL
STINSON        MOSUNNY   90  71  53 S5        30.12F
PLEASANTON     NOT AVBL
LA GRANGE      SUNNY     90  76  63 SW7       30.12F
GIDDINGS       MOSUNNY   88  72  58 SW6       30.15F
$$

EAST TEXAS

CITY           SKY/WX    TMP DP  RH WIND       PRES   REMARKS
PARIS            N/A     91  76  61 SW8         N/A
CLARKSVILLE    NOT AVBL
TYLER          SUNNY     89  74  60 SW8       30.15S
LONGVIEW       MOSUNNY   90  77  65 W8        30.14R
PALESTINE      SUNNY     88  74  63 SW6       30.16S
NACOGDOCHES    SUNNY     88  75  66 CALM      30.13S
$$

TEXAS HILL COUNTRY AND EDWARDS PLATEAU

CITY           SKY/WX    TMP DP  RH WIND       PRES   REMARKS
LLANO          SUNNY     90  72  55 CALM      30.18F
HORSESHOE BAY  FAIR      90  68  49 S3        30.16S
KERRVILLE      SUNNY     85  69  60 S8        30.19F
FREDERICKSBRG  SUNNY     85  64  49 SW9       30.19S
ROCKSPRINGS    SUNNY     86  70  58 S7        30.24S
HONDO          SUNNY     89  70  53 S7        30.16S
UVALDE         SUNNY     88  69  54 SE10      30.15S
DEL RIO        SUNNY     86  70  58 SE10      30.12S
$$

SOUTHEAST TEXAS

CITY           SKY/WX    TMP DP  RH WIND       PRES   REMARKS
COLLEGE STN    SUNNY     90  72  55 SW7       30.13F
CALDWELL       NOT AVBL
CROCKETT       MOSUNNY   86  77  74 W7        30.17F
BRENHAM        NOT AVBL
HUNTSVILLE     MOSUNNY   88  73  61 W7        30.15S
CONROE         PTSUNNY   89  75  63 W7        30.14F
HOUSTON BUSH   MOSUNNY   90  75  61 W7        30.13F
HOUSTON HOBBY  MOSUNNY   91  74  57 W7        30.12F
PERLAND        MOSUNNY   90  74  59 W6        30.14S
WHARTON        MOSUNNY   89  71  55 W3        30.14S
$$

THE UPPER TEXAS COAST

CITY           SKY/WX    TMP DP  RH WIND       PRES   REMARKS
ORANGE         PTSUNNY   87  77  70 CALM      30.15S
PORT ARTHUR    MOSUNNY   89  75  63 W3        30.12F
GALVESTON      MOSUNNY   88  78  72 VRB3      30.14S
ANGLETON       SUNNY     91  75  59 NW6       30.13S
BAY CITY       PTSUNNY   89  76  64 W5        30.12F
$$

TEXAS COASTAL BEND, RIO GRANDE PLAINS DEEP SOUTH TEXAS

CITY           SKY/WX    TMP DP  RH WIND       PRES   REMARKS
VICTORIA       NOT AVBL
BEEVILLE       FAIR      89  75  63 S7        30.12F
ROCKPORT       MOSUNNY   92  74  55 S8        30.11S
PORT ARANSAS   SUNNY     88  76  67 S8        30.12S
PORT LAVACA    MOSUNNY   89  74  62 SW6       30.13S
CORPUS CHRISTI NOT AVBL
KINGSVILLE NAS MOSUNNY   92  77  61 S8        30.10F
COTULLA        SUNNY     90  68  48 S9        30.11F
LAREDO         CLOUDY    89  71  55 S7        30.10S
BROWNSVILLE    SUNNY     89  75  63 S13       30.12R
PORT ISABEL    SUNNY     91  75  59 S12       30.11R
HEBBRONVILLE   SUNNY     88  67  49 S13G18    30.12S
MCALLEN        SUNNY     93  73  52 S13G23    30.11R
WESLACO        MOSUNNY   91  73  56 S13       30.10S
FALFURRIAS     SUNNY     90  72  54 SE12G17   30.10F
EDINBURG       SUNNY     94  69  44 SE13G18   30.11S
$$




USA.gov is the U.S. government's official web portal to all federal, state and local government web resources and services.